Weather History for Bend, OR

Change the Weather History Date:

Monday, October 7, 2013

  Actual Average (KRDM) Record (KRDM)
Temperature  
Mean Temperature 45 °F 50 °F  
Max Temperature 55 °F 68 °F 88 °F (1980)
Min Temperature 35 °F 33 °F 19 °F (2012)
Degree Days  
Heating Degree Days 20 15  
Month to date heating degree days 96  
Since 1 July heating degree days 495  
Cooling Degree Days 0 0  
Month to date cooling degree days 0  
Year to date cooling degree days 222  
Growing Degree Days 0 (Base 50)    
Moisture  
Dew Point 30 °F    
Average Humidity 53    
Maximum Humidity 87    
Minimum Humidity 30    
Precipitation  
Precipitation 0.00 in 0.02 in 0.57 in (1962)
Month to date precipitation 0.11  
Year to date precipitation 6.25  
Sea Level Pressure  
Sea Level Pressure 30.05 in    
Wind  
Wind Speed 7 mph (WSW)    
Max Wind Speed 17 mph    
Max Gust Speed 31 mph    
Visibility 10 miles    
Events Rain    
T = Trace of Precipitation, MM = Missing Value Source: NWS Daily Summary

Daily Weather History Graph

Daily Weather History Graph

Search for Another Location

Airport:

Trip Planner

Search our weather history database for the weather conditions in past years. The results will help you decide how hot, cold, wet, or windy it might be!

Date:

Astronomy

Oct. 07, 2013 Rise Set
Actual Time 7:10 AM PDT 6:34 PM PDT
Civil Twilight 6:41 AM PDT 7:03 PM PDT
Nautical Twilight 6:07 AM PDT 7:36 PM PDT
Astronomical Twilight 5:34 AM PDT 8:10 PM PDT
Moon 10:12 AM PDT (10/7) 8:16 PM PDT (10/7)
Length of Visible Light 12h 21m
Length of Day
11h 24m
Waxing Crescent, 9% of the Moon is Illuminated
Oct 7
Waxing Crescent
Oct 11
First Quarter
Oct 18
Full
Oct 26
Last Quarter
Nov 3
New

Hourly Weather History & Observations

Time (PDT) Temp. Windchill Dew Point Humidity Pressure Visibility Wind Dir Wind Speed Gust Speed Precip Events Conditions
12:15 AM 44.6 °F - 32.0 °F 61% 30.06 in 10.0 mi Calm Calm - N/A   Clear
12:35 AM 44.6 °F 42.2 °F 30.2 °F 57% 30.05 in 10.0 mi SSW 4.6 mph - N/A   Clear
12:55 AM 44.6 °F 41.4 °F 30.2 °F 57% 30.05 in 10.0 mi SSE 5.8 mph - N/A   Clear
1:15 AM 46.4 °F 44.3 °F 32.0 °F 57% 30.05 in 10.0 mi SSE 4.6 mph - N/A   Clear
1:35 AM 51.8 °F - 28.4 °F 41% 30.04 in 10.0 mi SSW 12.7 mph - N/A   Clear
1:55 AM 51.8 °F - 30.2 °F 44% 30.03 in 10.0 mi SSW 13.8 mph - N/A   Clear
2:15 AM 50.0 °F - 28.4 °F 43% 30.04 in 10.0 mi SW 11.5 mph - N/A   Clear
2:35 AM 50.0 °F - 28.4 °F 43% 30.03 in 10.0 mi SSW 10.4 mph - N/A   Clear
2:55 AM 50.0 °F - 28.4 °F 43% 30.03 in 10.0 mi SSW 6.9 mph - N/A   Clear
3:15 AM 48.2 °F - 28.4 °F 46% 30.02 in 10.0 mi SSW 9.2 mph - N/A   Clear
3:35 AM 46.4 °F 41.9 °F 28.4 °F 50% 30.02 in 10.0 mi SSW 9.2 mph - N/A   Clear
3:55 AM 46.4 °F 41.5 °F 26.6 °F 46% 30.01 in 10.0 mi SSW 10.4 mph - N/A   Clear
4:15 AM 46.4 °F 41.9 °F 26.6 °F 46% 30.01 in 10.0 mi SSW 9.2 mph - N/A   Clear
4:35 AM 44.6 °F 39.7 °F 26.6 °F 49% 30.01 in 10.0 mi SSW 9.2 mph - N/A   Clear
4:55 AM 44.6 °F 40.7 °F 26.6 °F 49% 30.01 in 10.0 mi SSW 6.9 mph - N/A   Clear
5:15 AM 44.6 °F 39.7 °F 26.6 °F 49% 30.01 in 10.0 mi SW 9.2 mph - N/A   Clear
5:35 AM 44.6 °F 39.2 °F 26.6 °F 49% 30.00 in 10.0 mi SW 10.4 mph - N/A   Clear
5:55 AM 44.6 °F 39.7 °F 26.6 °F 49% 30.00 in 10.0 mi SSW 9.2 mph - N/A   Scattered Clouds
6:15 AM 44.6 °F 39.7 °F 28.4 °F 53% 30.00 in 10.0 mi South 9.2 mph - N/A   Overcast
6:35 AM 46.4 °F 41.5 °F 26.6 °F 46% 30.00 in 10.0 mi South 10.4 mph - N/A   Overcast
6:55 AM 46.4 °F 42.9 °F 26.6 °F 46% 30.00 in 10.0 mi South 6.9 mph - N/A   Scattered Clouds
7:15 AM 50.0 °F - 23.0 °F 35% 30.00 in 10.0 mi South 9.2 mph - N/A   Mostly Cloudy
7:35 AM 50.0 °F - 19.4 °F 30% 30.00 in 10.0 mi South 13.8 mph 19.6 mph N/A   Mostly Cloudy
7:55 AM 50.0 °F - 19.4 °F 30% 30.00 in 10.0 mi South 15.0 mph 19.6 mph N/A   Mostly Cloudy
8:15 AM 50.0 °F - 21.2 °F 32% 30.00 in 10.0 mi South 15.0 mph - N/A   Overcast
8:35 AM 50.0 °F - 21.2 °F 32% 30.01 in 10.0 mi South 13.8 mph - N/A   Overcast
8:55 AM 50.0 °F - 23.0 °F 35% 30.01 in 10.0 mi South 13.8 mph - N/A   Mostly Cloudy
9:15 AM 51.8 °F - 23.0 °F 33% 30.01 in 10.0 mi South 16.1 mph 23.0 mph N/A   Overcast
9:35 AM 51.8 °F - 24.8 °F 35% 30.02 in 10.0 mi SSW 11.5 mph - N/A   Mostly Cloudy
9:55 AM 53.6 °F - 28.4 °F 38% 30.02 in 10.0 mi SSW 17.3 mph 20.7 mph N/A   Scattered Clouds
10:15 AM 53.6 °F - 32.0 °F 44% 30.03 in 10.0 mi WSW 12.7 mph 17.3 mph N/A   Partly Cloudy
10:35 AM 53.6 °F - 32.0 °F 44% 30.03 in 10.0 mi SW 12.7 mph 24.2 mph N/A   Partly Cloudy
10:55 AM 55.4 °F - 33.8 °F 44% 30.04 in 10.0 mi SW 10.4 mph - N/A   Partly Cloudy
11:15 AM 55.4 °F - 33.8 °F 44% 30.04 in 10.0 mi West 9.2 mph - N/A   Partly Cloudy
11:35 AM 53.6 °F - 37.4 °F 54% 30.04 in 10.0 mi North 6.9 mph - N/A   Mostly Cloudy
11:55 AM 51.8 °F - 37.4 °F 58% 30.05 in 10.0 mi NNW 9.2 mph - N/A Rain Light Rain
12:15 PM 51.8 °F - 39.2 °F 62% 30.05 in 10.0 mi North 3.5 mph - N/A Rain Light Rain
12:35 PM 51.8 °F - 35.6 °F 54% 30.05 in 10.0 mi NNW 13.8 mph 20.7 mph N/A   Overcast
12:55 PM 50.0 °F - 37.4 °F 62% 30.06 in 10.0 mi NW 10.4 mph - N/A Rain Light Rain
1:15 PM 51.8 °F - 35.6 °F 54% 30.06 in 10.0 mi NW 11.5 mph - N/A   Mostly Cloudy
1:35 PM 51.8 °F - 35.6 °F 54% 30.06 in 10.0 mi NNW 9.2 mph - N/A   Mostly Cloudy
1:55 PM 53.6 °F - 33.8 °F 47% 30.06 in 10.0 mi North 8.1 mph - N/A   Mostly Cloudy
2:15 PM 55.4 °F - 32.0 °F 41% 30.07 in 10.0 mi SW 17.3 mph 25.3 mph N/A   Overcast
2:35 PM 53.6 °F - 35.6 °F 51% 30.07 in 10.0 mi NW 12.7 mph 31.1 mph N/A   Mostly Cloudy
2:55 PM 53.6 °F - 33.8 °F 47% 30.07 in 10.0 mi NW 12.7 mph - N/A   Mostly Cloudy
3:15 PM 51.8 °F - 32.0 °F 47% 30.07 in 10.0 mi WNW 8.1 mph - N/A   Mostly Cloudy
3:35 PM 51.8 °F - 32.0 °F 47% 30.07 in 10.0 mi WNW 10.4 mph - N/A   Mostly Cloudy
3:55 PM 51.8 °F - 32.0 °F 47% 30.08 in 10.0 mi NW 6.9 mph - N/A   Mostly Cloudy
4:15 PM 50.0 °F - 32.0 °F 50% 30.07 in 10.0 mi Calm Calm - N/A   Partly Cloudy
4:35 PM 51.8 °F - 32.0 °F 47% 30.07 in 10.0 mi WNW 3.5 mph - N/A   Mostly Cloudy
4:55 PM 50.0 °F - 32.0 °F 50% 30.07 in 10.0 mi North 8.1 mph - N/A   Overcast
5:15 PM 50.0 °F - 32.0 °F 50% 30.08 in 10.0 mi NNW 5.8 mph - N/A   Mostly Cloudy
5:35 PM 50.0 °F - 32.0 °F 50% 30.08 in 10.0 mi NW 9.2 mph - N/A   Mostly Cloudy
5:55 PM 48.2 °F - 33.8 °F 58% 30.08 in 10.0 mi NNW 5.8 mph - N/A   Mostly Cloudy
6:15 PM 50.0 °F - 33.8 °F 54% 30.08 in 10.0 mi Calm Calm - N/A   Mostly Cloudy
6:35 PM 48.2 °F - 32.0 °F 54% 30.09 in 10.0 mi Calm Calm - N/A   Mostly Cloudy
6:55 PM 48.2 °F - 32.0 °F 54% 30.10 in 10.0 mi Calm Calm - N/A   Overcast
7:15 PM 46.4 °F 42.4 °F 32.0 °F 57% 30.09 in 10.0 mi NW 8.1 mph - N/A   Mostly Cloudy
7:35 PM 44.6 °F - 32.0 °F 61% 30.10 in 10.0 mi Calm Calm - N/A   Clear
7:55 PM 44.6 °F 42.2 °F 32.0 °F 61% 30.10 in 10.0 mi North 4.6 mph - N/A   Partly Cloudy
8:15 PM 44.6 °F - 32.0 °F 61% 30.09 in 10.0 mi Calm Calm - N/A   Partly Cloudy
8:35 PM 42.8 °F 41.1 °F 32.0 °F 66% 30.09 in 10.0 mi West 3.5 mph - N/A   Clear
8:55 PM 39.2 °F - 32.0 °F 75% 30.09 in 10.0 mi Calm Calm - N/A   Clear
9:15 PM 35.6 °F - 32.0 °F 87% 30.09 in 10.0 mi Calm Calm - N/A   Clear
9:35 PM 35.6 °F - 32.0 °F 87% 30.09 in 10.0 mi Calm Calm - N/A   Clear
9:55 PM 35.6 °F - 32.0 °F 87% 30.10 in 10.0 mi Calm Calm - N/A   Partly Cloudy
10:15 PM 37.4 °F 34.9 °F 32.0 °F 81% 30.10 in 10.0 mi SSW 3.5 mph - N/A   Mostly Cloudy
10:35 PM 39.2 °F - 32.0 °F 75% 30.10 in 10.0 mi Calm Calm - N/A   Mostly Cloudy
10:55 PM 39.2 °F - 32.0 °F 75% 30.11 in 10.0 mi Calm Calm - N/A   Mostly Cloudy
11:15 PM 37.4 °F - 32.0 °F 81% 30.11 in 10.0 mi Calm Calm - N/A   Mostly Cloudy
11:35 PM 37.4 °F - 32.0 °F 81% 30.10 in 10.0 mi Calm Calm - N/A   Scattered Clouds
11:55 PM 35.6 °F - 32.0 °F 87% 30.11 in 10.0 mi Calm Calm - N/A   Clear